Regional Weather Roundup
Issued by NWS

Home | Current Version | Previous Version | Graphics & Text | Print | Product List | Glossary On
Versions: 1 2 3 4 5 6 7 8 9 10 11 12 13 14 15 16 17 18 19 20 21 22 23 24 25 26 27 28 29 30 31 32 33 34 35 36 37 38 39 40 41 42 43 44 45 46 47 48 49 50
000
ASUS43 KLSX 281959
RWRMO

WEATHER SUMMARY FOR MISSOURI
NATIONAL WEATHER SERVICE SPRINGFIELD MO
300 PM CDT SAT MAR 28 2015

NOTE: "FAIR" INDICATES FEW OR NO CLOUDS BELOW 12,000 FEET WITH NO
       SIGNIFICANT WEATHER AND/OR OBSTRUCTIONS TO VISIBILITY.
       CURRENT SKY AND/OR WEATHER CONDITIONS ARE NOT AVAILABLE FOR
       CHILLICOTHE AND FARMINGTON.

MOZ001>031-035>038-043-044-053-054-282100-
...NORTHERN AND WESTERN MISSOURI...

CITY           SKY/WX    TMP DP  RH WIND       PRES   REMARKS
KANSAS CTY INT MOSUNNY   51  31  46 E16G29    30.14F
KANSAS C DTWN  MOSUNNY   54  30  40 SE13G20   30.13F
LEE`S SUMMIT   MOSUNNY   50  30  46 SE10G20   30.15F
ST JOSEPH      SUNNY     52  31  44 SE14G22   30.14F
CHILLICOTHE      N/A     47  31  53 E13G18    30.20F
KIRKSVILLE     SUNNY     45  22  40 SE8       30.22F

$$
MOZ066>068-077>081-088>096-101>105-282100-
...SOUTHWEST MISSOURI...

CITY           SKY/WX    TMP DP  RH WIND       PRES   REMARKS
SPRINGFIELD    MOSUNNY   44  30  57 SE16      30.16S
JOPLIN         SUNNY     60  38  43 E13       30.09F

$$
MOZ032>034-039>042-045>050-055>058-069>072-282100-
...CENTRAL MISSOURI...

CITY           SKY/WX    TMP DP  RH WIND       PRES   REMARKS
COLUMBIA       MOSUNNY   47  28  47 S10       30.21F
JEFFERSON CITY MOSUNNY   46  27  47 SE8       30.23F
ROLLA          MOSUNNY   43  27  53 SE7       30.20F
SEDALIA        MOSUNNY   50  31  48 SE16      30.19F
OSAGE BEACH    PTSUNNY   46  32  57 SE9       30.21F

$$
MOZ051-052-059>065-282100-
...EAST CENTRAL MISSOURI...

CITY           SKY/WX    TMP DP  RH WIND       PRES   REMARKS
ST LOUIS INTL  SUNNY     45  19  35 SE10      30.29F
SPIRIT OF STL  MOSUNNY   45  18  34 E9        30.27F
ST CHARLES     SUNNY     42  20  41 VRB5      30.28F

$$
MOZ072>076-082>087-097>100-106>115-282100-
...SOUTH CENTRAL AND SOUTHEAST MISSOURI...

CITY           SKY/WX    TMP DP  RH WIND       PRES   REMARKS
CAPE GIRARDEAU SUNNY     45  22  40 NE7       30.29F
FARMINGTON     SUNNY     45  21  39 NE3       30.27F
POPLAR BLUFF   MOSUNNY   44  28  53 E7        30.27F
WEST PLAINS    CLOUDY    36  32  85 SE7       30.24F

$$


USA.gov is the U.S. government's official web portal to all federal, state and local government web resources and services.